Location: Melbourne
(37.8170°S, 144.9670°E)
Time: 15:30:39
(UTC+11:00)

Transit 2A - All Passes

Search period start: 23 January 2017 00:00
Search period end: 02 February 2017 00:00
Orbit: 600 x 959 km, 66.7° (Epoch: 22 January)

Date Brightness Start Highest point End Pass type
(mag) Time Alt. Az. Time Alt. Az. Time Alt. Az.
23 Jan - 08:35:06 10° NE 08:38:09 16° ENE 08:41:23 10° ESE daylight
23 Jan - 10:15:47 10° NW 10:20:40 56° WSW 10:26:10 10° SSE daylight
23 Jan - 17:21:47 10° S 17:25:45 17° SE 17:29:44 10° E daylight
23 Jan - 19:03:33 10° SSW 19:09:57 83° ESE 19:16:18 10° NNE daylight
23 Jan - 20:48:56 10° WSW 20:52:27 15° WNW 20:55:56 10° NW daylight
24 Jan - 08:04:09 10° ENE 08:04:28 10° E 08:04:49 10° E daylight
24 Jan - 09:41:40 10° NNW 09:46:38 83° WSW 09:52:13 10° SSE daylight
24 Jan - 11:28:12 10° WSW 11:30:54 14° SW 11:33:43 10° S daylight
24 Jan - 16:48:40 10° SSE 16:51:20 13° SE 16:54:01 10° ESE daylight
24 Jan - 18:29:36 10° SSW 18:35:54 60° ESE 18:42:10 10° NE daylight
24 Jan - 20:13:54 10° SW 20:18:42 23° WNW 20:23:27 10° NNW daylight
25 Jan - 09:07:47 10° NNW 09:12:40 66° ENE 09:18:10 10° SSE daylight
25 Jan - 10:52:52 10° W 10:56:31 19° SW 11:00:27 10° S daylight
25 Jan - 17:55:45 10° SSW 18:01:47 43° SE 18:07:49 10° NE daylight
25 Jan - 19:39:20 10° SW 19:44:54 33° WNW 19:50:25 10° N daylight
26 Jan - 08:34:08 10° N 08:38:47 43° ENE 08:43:58 10° SE daylight
26 Jan - 10:17:57 10° WNW 10:22:13 26° SW 10:26:54 10° S daylight
26 Jan - 17:21:59 10° S 17:27:37 32° SE 17:33:14 10° ENE daylight
26 Jan - 19:04:59 10° SW 19:11:03 46° WNW 19:17:01 10° N daylight
27 Jan - 08:00:47 10° NNE 08:04:59 28° ENE 08:09:35 10° SE daylight
27 Jan - 09:43:20 10° WNW 09:48:00 36° SW 09:53:12 10° SSE daylight
27 Jan - 16:48:19 10° S 16:53:22 24° SE 16:58:25 10° E daylight
27 Jan - 18:30:49 10° SSW 18:37:08 66° WNW 18:43:23 10° NNE daylight
28 Jan - 07:27:49 10° NNE 07:31:14 19° ENE 07:34:53 10° ESE daylight
28 Jan - 09:08:57 10° NW 09:13:51 51° WSW 09:19:22 10° SSE daylight
28 Jan - 16:14:48 10° S 16:19:02 18° SE 16:23:18 10° E daylight
28 Jan - 17:56:45 10° SSW 18:03:10 89° ESE 18:09:30 10° NNE daylight
28 Jan - 19:42:33 10° WSW 19:45:35 14° WNW 19:48:36 10° NW daylight
29 Jan - 06:55:46 10° ENE 06:57:33 12° E 06:59:23 10° E daylight
29 Jan - 08:34:47 10° NNW 08:39:47 76° WSW 08:45:27 10° SSE daylight
29 Jan - 10:21:41 10° WSW 10:24:10 13° SW 10:26:44 10° SSW daylight
29 Jan - 15:41:33 10° S 15:44:39 14° SE 15:47:45 10° ESE daylight
29 Jan - 17:22:47 10° SSW 17:29:08 65° ESE 17:35:25 10° NE daylight
29 Jan - 19:07:19 10° WSW 19:11:52 21° WNW 19:16:20 10° NNW daylight
30 Jan - 08:00:50 10° NNW 08:05:48 73° ENE 08:11:25 10° SSE daylight
30 Jan - 09:46:14 10° W 09:49:47 18° SW 09:53:33 10° S daylight
30 Jan - 15:09:32 10° SSE 15:10:10 10° SE 15:10:50 10° SE daylight
30 Jan - 16:48:54 10° SSW 16:55:02 47° SE 17:01:07 10° NE daylight
30 Jan - 18:32:39 10° SW 18:38:04 30° WNW 18:43:24 10° NNW daylight
31 Jan - 07:27:07 10° N 07:31:54 48° ENE 07:37:15 10° SE daylight
31 Jan - 09:11:14 10° WNW 09:15:27 24° SW 09:20:02 10° S daylight
31 Jan - 16:15:06 10° SSW 16:20:52 35° SE 16:26:36 10° ENE daylight
31 Jan - 17:58:15 10° SW 18:04:14 43° WNW 18:10:06 10° N daylight
01 Feb - 06:53:41 10° N 06:58:05 32° ENE 07:02:56 10° SE daylight
01 Feb - 08:36:32 10° WNW 08:41:12 33° SW 08:46:22 10° SSE daylight
01 Feb - 15:41:24 10° S 15:46:38 26° SE 15:51:50 10° ENE daylight
01 Feb - 17:24:03 10° SW 17:30:20 61° WNW 17:36:30 10° NNE daylight
